Probability
0 0 0 0 0 0 0 0 0 0 0 0 0 0 0 0 0 0 0 0 0 0 0 0 0 0 0 0 0 0 0 0 0 0 0 0 0 0 0 0 0 0 0
0 0 0 0 0 0 0 0 0 0 0 0 0 0 0 0 0 0 0 0 0 0 0 0 0 0 0 0 0 0 0 0 0 0 0 0 0 0 0 0 0 0 0
0 0 0 0 0 0 0 0 0 0 0 0 0 0 0 0 0 0 0 0 0 0 0 0 0 0 0 0 0 0 0 0 0 0 0 0 0 0 0 0 0 0 0
0 0 0 0 0 0 0 0 0 0 0 0 0 0 0 0 0 0 0 0 0 0 0 0 0 0 0 0 0 0 0 0 0 0 0 0 0 0 0 0 0 0 0
0 0 0 0 0 0 0 0 0 0 0 0 0 0 0 0 0 0 0 0 0 0 0 0 0 0 0 0 0 0 0 0 0 0 0 0 0 0 0 0 0 0 0
0 0 0 0 0 0 0 0 0 0 0 0 0 0 0 0 0 0 0 0 0 0 0 0 0 0 0 0 0 0 0 0 0 0 0 0 0 0 0 0 0 0 0
0 0 0 0 0 0 0 0 0 0 0 0 0 0 0 0 0 0 0 0 0 0 0 0 0 0 0 0 0 0 0 0 0 0 0 0 0 0 0 0 0 0 0
0 0 0 0 0 0 0 0 0 0 0 0 0 0 0 0 0 0 0 0 0 0 0 0 0 0 0 0 0 0 0 0 0 0 0 0 0 0 0 0 0 0 0
0 0 0 0 0 0 0 0 0 0 0 0 0 0 0 0 0 0 0 0 0 0 0 0 0 0 0 0 0 0 0 0 0 0 0 0 0 0 0 0 0 0 0
0 0 0 0 0 0 0 0 0 0 0 0 0 0 0 0 0 0 0 0 0 0 0 0 0 0 0 0 0 0 0 0 0 0 0 0 0 0 0 0 0 0 0
0 0 0 0 0 0 0 0 0 0 0 0 0 0 0 0 0 0 0 0 0 0 0 0 0 0 0 0 0 0 0 0 0 0 0 0 0 0 0 0 0 0 0
0 0 0 0 0 0 0 0 0 0 0 0 0 0 0 0 0 0 0 0 0 0 0 0 0 0 0 0 0 0 0 0 0 0 0 0 0 0 0 0 0 0 0
0 0 0 0 0 0 0 0 0 0 0 0 0 0 0 0 0 0 0 0 0 0 0 0 0 0 0 0 0 0 0 0 0 0 0 0 0 0 0 0 0 0 0
0 0 0 0 0 0 0 0 0 0 0 0 0 0 0 0 0 0 0 0 0 0 0 0 0 0 0 0 0 0 0 0 0 0 0 0 0 0 0 0 0 0 0
0 0 0 0 0 0 0 0 0 0 0 0 0 0 0 0 0 0 0 0 0 0 0 0 0 0 0 0 0 0 0 0 0 0 0 0 0 0 0 0 0 0 0
0 0 0 0 0 0 0 0 0 0 0 0 0 0 0 0 0 0 0 0 0 0 0 0 0 0 0 0 0 0 0 0 0 0 0 0 0 0 0 0 0 0 0
0 0 0 0 0 0 0 0 0 0 0 0 0 0 0 0 0 0 0 0 0 0 0 0 0 0 0 0 0 0 0 0 0 0 0 0 0 0 0 0 0 0 0
0 0 0 0 0 0 0 0 0 0 0 0 0 0 0 0 0 0 0 0 0 0 0 0 0 0 0 0 0 0 0 0 0 0 0 0 0 0 0 0 0 0 0
0 0 0 0 0 0 0 0 0 0 0 0 0 0 0 0 0 0 0 0 0 0 0 0 0 0 0 0 0 0 0 0 0 0 0 0 0 0 0 0 0 0 0
0 0 0 0 0 0 0 0 0 0 0 0 0 0 0 0 0 0 0 0 0 0 0 0 0 0 0 0 0 0 0 0 0 0 0 0 0 0 0 0 0 0 0
0 0 0 0 0 0 0 0 0 0 0 0 0 0 0 0 0 0 0 0 0 0 0 0 0 0 0 0 0 0 0 0 0 0 0 0 0 0 0 0 0 0 0
0 0 0 0 0 0 0 0 0 0 0 0 0 0 0 0 0 0 0 0 0 0 0 0 0 0 0 0 0 0 0 0 0 0 0 0 0 0 0 0 0 0 0
0 0 0 0 0 0 0 0 0 0 0 0 0 0 0 0 0 0 0 0 0 0 0 0 0 0 0 0 0 0 0 0 0 0 0 0 0 0 0 0 0 0 0
0 0 0 0 0 0 0 0 0 0 0 0 0 0 0 0 0 0 0 0 0 0 0 0 0 0 0 0 0 0 0 0 0 0 0 0 0 0 0 0 0 0 0
0 0 0 0 0 0 0 0 0 0 0 0 0 0 0 0 0 0 0 0 0 0 0 0 0 0 0 0 0 0 0 0 0 0 0 0 0 0 0 0 0 0 0
0 0 0 0 0 0 0 0 0 0 0 0 0 0 0 0 0 0 0 0 0 0 0 0 0 0 0 0 0 0 0 0 0 0 0 0 0 0 0 0 0 0 0
Wind_Speed
5 5 3 3 3 2 2 2 2 2 1 1 1 0 0 1 0 0 1 0 2 4 5 6 7 8 9 9 10 10 11 11 11 12 12 12 12 12 13 13 14 14 14
6 5 4 4 3 3 3 3 3 2 1 0 0 0 0 1 0 0 1 1 2 4 5 6 7 8 9 9 10 10 10 11 11 12 12 12 13 13 13 13 14 14 14
7 6 5 4 4 4 4 2 2 1 1 0 1 1 1 1 1 1 1 1 1 3 5 6 7 8 8 9 10 10 10 11 12 12 12 13 13 13 13 14 14 14 15
9 7 5 5 5 4 3 3 2 1 1 1 0 1 1 1 1 1 1 2 1 1 2 4 5 7 8 9 9 10 10 11 11 12 12 13 13 14 14 14 14 15 15
9 7 6 5 5 4 3 3 2 2 1 0 1 1 1 1 0 1 2 2 2 2 1 1 3 5 7 8 9 10 10 11 12 12 13 13 14 14 14 15 15 16 16
10 8 6 6 6 4 3 3 2 2 1 1 0 2 2 2 1 1 2 1 1 2 1 1 2 3 6 7 8 9 10 11 12 13 13 14 14 14 15 15 16 16 17
10 9 6 6 6 5 5 5 3 3 1 1 2 3 3 3 2 2 1 1 1 1 1 1 1 1 2 6 7 8 10 11 13 13 13 14 14 15 15 16 16 17 17
11 9 8 7 6 5 5 5 4 3 1 2 3 2 2 3 3 2 2 1 1 1 1 1 1 1 1 1 4 7 9 12 13 14 14 14 15 15 16 16 17 17 18
12 10 10 8 7 6 6 6 5 6 3 1 2 4 3 3 2 3 2 1 1 1 1 1 1 1 0 0 1 5 9 11 13 14 15 15 15 16 17 17 17 18 18
12 11 10 9 8 6 6 6 5 4 5 3 1 1 2 4 3 1 3 2 2 1 1 1 1 1 0 1 2 6 10 12 14 15 15 16 17 17 18 18 18 18 19
11 11 11 9 9 7 7 7 6 5 4 4 4 3 2 1 2 3 2 3 3 2 2 2 2 1 1 1 2 5 10 12 14 15 16 17 18 18 19 19 19 19 20
8 10 10 9 9 7 8 7 7 7 5 5 4 4 4 3 3 3 3 2 3 3 3 2 1 1 1 1 3 9 11 13 14 16 16 17 18 18 19 20 20 20 21
7 11 9 9 8 8 8 7 7 7 7 6 5 4 3 3 3 3 3 2 2 3 3 2 1 1 1 1 3 10 10 14 15 16 17 17 18 19 19 20 20 21 21
10 11 11 10 9 9 9 8 6 6 6 6 6 5 3 3 3 4 4 3 1 2 3 4 2 2 1 1 4 8 6 13 16 17 17 17 18 19 20 20 21 21 22
8 11 11 10 10 9 9 9 6 6 6 6 6 5 4 3 3 3 3 4 4 2 4 4 3 2 2 2 5 3 4 11 16 17 17 18 19 19 20 20 21 22 22
10 12 11 11 10 10 9 8 6 6 7 6 5 6 4 3 3 3 3 3 3 4 4 4 4 3 3 3 7 4 5 14 15 17 18 19 19 20 20 21 22 22 23
12 13 12 12 11 10 10 9 8 8 8 6 5 6 6 5 4 3 3 3 3 4 5 4 3 3 3 4 5 4 5 5 6 16 18 19 20 20 20 21 22 22 23
13 13 12 12 11 11 10 11 10 9 9 9 7 6 6 5 5 4 3 4 4 4 4 6 4 3 4 4 5 5 5 5 5 13 18 19 19 20 21 21 22 22 23
12 12 12 12 12 12 11 10 10 10 9 9 8 8 7 6 6 4 4 5 4 4 4 4 5 3 3 3 4 5 5 5 6 10 15 16 18 20 20 21 22 23 23
13 13 12 12 11 11 11 10 9 9 8 7 7 8 8 8 8 7 5 5 4 4 4 4 5 4 4 4 3 4 5 4 5 7 9 12 16 18 20 21 22 22 22
12 12 11 10 10 9 9 10 9 9 8 7 7 7 7 9 11 8 6 5 5 4 4 4 5 4 4 3 4 3 5 5 5 5 4 6 7 6 9 15 19 20 22
10 11 11 11 11 9 13 17 12 9 8 8 7 6 7 8 11 13 13 11 8 6 5 4 4 5 6 5 4 4 5 4 4 3 3 5 5 6 6 6 15 21 21
10 10 10 10 10 10 15 17 15 9 8 8 7 6 5 6 8 5 9 12 10 13 11 6 6 7 6 5 5 5 5 5 6 5 4 6 4 6 6 9 19 20 20
10 10 9 10 9 9 15 15 14 8 6 7 7 7 7 6 6 6 5 6 6 7 8 6 6 7 7 6 6 6 6 6 6 5 4 6 4 5 7 6 15 18 18
8 7 9 9 9 9 13 14 13 6 5 6 6 6 6 6 10 11 6 6 6 6 9 12 13 12 14 14 10 4 4 5 7 4 3 3 4 5 5 5 8 14 17
7 7 7 7 8 7 11 13 12 5 5 5 4 5 9 9 11 11 6 6 7 7 5 6 7 9 7 8 12 5 3 5 6 5 2 2 3 4 5 3 3 5 8
Wind_Direction
171 174 178 179 185 183 185 197 212 223 242 255 237 196 340 353 283 184 266 220 58 32 29 31 30 30 27 24 20 15 10 6 2 0 357 354 351 348 345 343 341 339 335
173 174 178 180 187 188 190 190 191 197 213 202 359 42 19 9 36 106 126 85 91 66 51 41 32 28 21 16 13 11 7 2 359 356 353 350 347 343 340 337 336 334 331
176 175 175 181 188 183 177 169 173 150 138 94 14 353 10 8 48 101 119 115 93 85 68 47 34 26 17 11 9 9 6 2 358 355 351 348 345 341 338 336 334 332 330
177 173 174 183 180 170 163 160 151 126 105 79 349 334 359 4 58 127 129 133 126 96 66 58 40 24 12 6 6 6 4 1 357 353 351 348 344 341 337 335 333 331 328
178 173 176 180 171 163 165 164 139 141 148 171 269 334 355 350 51 116 129 140 148 148 137 40 34 18 8 3 2 1 0 359 355 351 349 346 343 340 337 334 332 330 328
179 173 174 177 166 159 164 159 147 136 145 167 35 19 358 344 57 110 131 128 147 147 122 65 31 4 6 3 2 357 355 355 351 348 347 344 341 339 337 334 332 329 327
180 176 174 173 169 171 175 167 148 143 139 118 72 17 359 13 46 52 65 75 67 79 84 83 70 29 355 6 1 357 352 350 347 345 343 341 339 338 335 334 332 330 327
181 180 176 176 173 168 169 168 153 143 142 129 124 92 15 350 353 14 22 56 47 41 48 55 60 51 17 1 353 357 350 344 341 341 340 339 337 335 333 332 330 328 326
183 180 180 175 175 172 176 177 166 156 159 158 141 142 149 213 288 327 356 14 1 23 351 336 11 4 17 21 338 342 343 339 338 337 336 335 332 330 330 329 327 326 325
183 181 179 177 177 176 175 178 171 160 150 159 147 125 150 156 156 289 316 326 330 315 300 308 324 317 340 336 329 336 339 337 334 334 333 332 330 328 328 327 325 323 322
184 183 181 179 178 178 177 174 167 164 158 158 161 152 130 100 131 155 253 304 321 294 274 275 275 284 319 328 308 322 335 334 332 331 330 329 327 326 325 324 322 321 319
186 186 182 181 180 177 178 177 172 169 169 161 162 160 160 161 178 168 201 246 280 291 295 291 270 255 276 314 319 330 330 329 329 328 327 325 324 323 321 320 319 317 316
188 190 183 182 180 180 177 170 169 174 172 168 172 177 173 172 159 157 166 210 257 292 307 304 270 231 265 317 315 328 327 326 325 325 324 323 321 320 318 317 316 315 314
189 184 183 182 179 176 173 169 168 175 173 173 177 173 171 179 164 163 164 160 231 293 294 280 291 246 270 299 305 325 319 321 321 322 321 320 319 317 316 316 315 314 313
180 179 181 179 178 176 172 168 174 176 171 176 177 176 174 181 173 173 164 160 166 226 270 264 268 262 266 282 299 300 290 309 320 320 318 317 316 315 315 315 315 314 312
178 176 180 180 178 176 174 171 171 172 172 177 173 174 181 180 178 176 176 176 173 184 239 249 243 255 274 288 302 302 286 311 315 315 314 314 314 314 314 315 314 312 310
180 181 182 180 179 179 176 175 177 173 178 181 180 184 192 181 183 187 180 181 189 183 232 264 245 252 257 270 288 286 281 283 292 308 311 311 312 313 313 314 313 312 312
182 182 180 180 182 181 179 180 181 181 183 187 189 187 196 188 194 193 190 200 206 203 214 259 270 258 253 258 267 279 288 292 284 301 308 310 311 312 312 313 313 312 312
181 180 180 183 183 183 182 184 183 185 189 190 188 191 196 191 204 204 204 211 215 218 214 242 270 261 263 264 278 282 281 282 288 298 305 307 309 310 312 314 313 313 312
180 182 184 184 183 182 182 182 181 185 188 191 192 196 196 198 205 205 210 216 216 221 226 243 264 270 265 266 264 281 291 277 284 292 295 301 305 308 311 312 312 312 311
181 180 179 180 180 181 184 180 182 185 187 191 198 204 205 208 212 211 212 212 209 220 228 243 262 272 272 276 271 265 283 287 277 268 275 287 293 290 297 303 308 307 308
175 175 181 181 183 189 188 188 184 185 187 191 201 209 214 216 225 231 237 236 222 218 223 231 252 259 267 263 264 269 283 299 296 264 269 281 278 281 285 283 299 307 310
172 176 181 181 186 190 187 190 191 184 189 195 199 203 215 221 227 226 243 251 251 250 247 241 245 252 261 259 261 269 266 267 271 273 277 280 269 276 281 294 304 308 312
174 178 180 182 184 190 188 191 191 186 190 197 200 202 207 216 218 221 227 239 246 251 255 252 240 249 249 251 243 255 265 272 265 263 256 276 278 275 288 287 297 305 315
173 175 178 179 183 188 190 190 185 177 191 204 206 204 206 214 232 239 236 241 254 257 264 263 262 268 275 286 290 286 287 292 294 282 236 253 278 290 282 271 285 304 316
167 167 174 179 182 185 190 189 182 175 192 202 207 212 221 227 237 244 236 234 251 258 254 266 270 277 281 287 295 283 261 276 290 292 250 253 275 301 298 272 271 290 303